"Period start","avg(HW err(1)/warn(2) (#))","avg(Visibility (m))","avg(Weather code (#))","avg(Precip intensity (mm/h))","min(HW err(1)/warn(2) (#))","max(HW err(1)/warn(2) (#))","std(HW err(1)/warn(2) (#))","med(HW err(1)/warn(2) (#))","min(Visibility (m))","max(Visibility (m))","std(Visibility (m))","med(Visibility (m))","min(Weather code (#))","max(Weather code (#))","std(Weather code (#))","med(Weather code (#))","min(Precip intensity (mm/h))","max(Precip intensity (mm/h))","std(Precip intensity (mm/h))","med(Precip intensity (mm/h))"
2014-09-10 00:00:00,2,48607,0,0.00,2,2,0,2,39377,50000,3172,50000,0,0,0,0,0.00,0.00,0.00,0.00
2014-09-10 00:10:00,2,45777,0,0.00,2,2,0,2,39462,50000,3543,46378,0,0,0,0,0.00,0.00,0.00,0.00
2014-09-10 00:20:00,2,47708,0,0.00,2,2,0,2,39790,50000,3712,49914,0,0,0,0,0.00,0.00,0.00,0.00
2014-09-10 00:30:00,2,48722,0,0.00,2,2,0,2,44761,50000,2079,50000,0,0,0,0,0.00,0.00,0.00,0.00
2014-09-10 00:40:00,2,42212,0,0.00,2,2,0,2,31769,50000,6545,42665,0,0,0,0,0.00,0.00,0.00,0.00
2014-09-10 00:50:00,2,32404,0,0.00,2,2,0,2,21589,39497,6519,34897,0,0,0,0,0.00,0.00,0.00,0.00
2014-09-10 01:00:00,2,34575,0,0.00,2,2,0,2,21730,45436,7089,35109,0,0,0,0,0.00,0.00,0.00,0.00
2014-09-10 01:10:00,2,38788,0,0.00,2,2,0,2,26502,50000,8402,41362,0,0,0,0,0.00,0.00,0.00,0.00
2014-09-10 01:20:00,2,37229,0,0.00,2,2,0,2,27823,50000,6775,37292,0,0,0,0,0.00,0.00,0.00,0.00
2014-09-10 01:30:00,2,38426,0,0.00,2,2,0,2,20967,50000,8606,39992,0,0,0,0,0.00,0.00,0.00,0.00
2014-09-10 01:40:00,2,35546,0,0.00,2,2,0,2,15921,45719,9265,38030,0,0,0,0,0.00,0.00,0.00,0.00
2014-09-10 01:50:00,2,37180,0,0.00,2,2,0,2,23464,48860,7308,36697,0,0,0,0,0.00,0.00,0.00,0.00
2014-09-10 02:00:00,2,38352,0,0.00,2,2,0,2,28439,45611,4476,38321,0,0,0,0,0.00,0.00,0.00,0.00
2014-09-10 02:10:00,2,38681,0,0.00,2,2,0,2,27666,46191,5756,39436,0,0,0,0,0.00,0.00,0.00,0.00
2014-09-10 02:20:00,2,40524,0,0.00,2,2,0,2,28721,50000,7326,41385,0,0,0,0,0.00,0.00,0.00,0.00
2014-09-10 02:30:00,2,39804,0,0.00,2,2,0,2,28852,50000,7671,39280,0,0,0,0,0.00,0.00,0.00,0.00
2014-09-10 02:40:00,2,36599,0,0.00,0,2,1,2,25817,50000,9769,33152,0,0,0,0,0.00,0.00,0.00,0.00
2014-09-10 02:50:00,0,46799,0,0.00,0,0,0,0,40279,50000,3329,47480,0,0,0,0,0.00,0.00,0.00,0.00
2014-09-10 03:00:00,0,45202,0,0.00,0,0,0,0,37779,50000,4203,45420,0,0,0,0,0.00,0.00,0.00,0.00
2014-09-10 03:10:00,0,46182,0,0.00,0,0,0,0,36786,50000,4521,48161,0,0,0,0,0.00,0.00,0.00,0.00
2014-09-10 03:20:00,0,46173,0,0.00,0,0,0,0,37523,50000,3818,47665,0,0,0,0,0.00,0.00,0.00,0.00
2014-09-10 03:30:00,1,39723,0,0.00,0,2,1,0,25581,46247,5802,40728,0,0,0,0,0.00,0.00,0.00,0.00
2014-09-10 03:40:00,0,31897,0,0.00,0,2,1,0,12039,47379,10399,33174,0,0,0,0,0.00,0.00,0.00,0.00
2014-09-10 03:50:00,0,47728,0,0.00,0,2,1,0,42371,50000,2446,48166,0,0,0,0,0.00,0.00,0.00,0.00
2014-09-10 04:00:00,0,47777,0,0.00,0,0,0,0,41126,50000,2686,48336,0,0,0,0,0.00,0.00,0.00,0.00
2014-09-10 04:10:00,0,48848,0,0.00,0,0,0,0,42743,50000,2286,50000,0,0,0,0,0.00,0.00,0.00,0.00
2014-09-10 04:20:00,0,46903,6,0.00,0,0,0,0,22106,50000,8275,49784,0,61,18,0,0.00,0.00,0.00,0.00
2014-09-10 04:30:00,0,32447,61,2.63,0,0,0,0,21876,46421,8117,30902,61,61,0,61,0.65,7.90,2.02,2.10
2014-09-10 04:40:00,0,42213,43,0.49,0,0,0,0,33616,50000,6509,42685,0,61,28,61,0.00,2.75,0.81,0.10
2014-09-10 04:50:00,0,39047,37,0.34,0,0,0,0,27759,50000,9520,37111,0,61,30,61,0.00,1.15,0.40,0.15
2014-09-10 05:00:00,0,26724,43,7.22,0,0,0,0,14058,49985,13095,21930,0,62,28,61,0.00,23.55,7.59,6.10
2014-09-10 05:10:00,0,31045,60,1.97,0,0,0,0,16162,46755,10187,29048,51,61,3,61,0.00,5.50,2.10,1.12
2014-09-10 05:20:00,0,45731,26,0.02,0,0,0,0,36221,50000,4216,46716,0,51,26,26,0.00,0.05,0.02,0.00
2014-09-10 05:30:00,0,49780,0,0.00,0,0,0,0,48498,50000,474,50000,0,0,0,0,0.00,0.00,0.00,0.00
2014-09-10 05:40:00,0,35327,30,1.91,0,0,0,0,16449,50000,13258,34882,0,61,30,30,0.00,7.50,2.40,0.68
2014-09-10 05:50:00,0,44390,48,0.11,0,0,0,0,28628,50000,8412,50000,0,61,24,61,0.00,0.80,0.23,0.03
2014-09-10 06:00:00,0,46058,12,0.08,0,0,0,0,31751,50000,6778,49430,0,61,24,0,0.00,0.50,0.17,0.00
2014-09-10 06:10:00,0,44212,40,0.07,0,0,0,0,36520,50000,4178,44344,0,61,26,51,0.00,0.60,0.18,0.00
2014-09-10 06:20:00,0,48620,0,0.00,0,0,0,0,45197,50000,1685,49740,0,0,0,0,0.00,0.00,0.00,0.00
2014-09-10 06:30:00,0,48101,0,0.00,0,0,0,0,43161,50000,2272,49427,0,0,0,0,0.00,0.00,0.00,0.00
2014-09-10 06:40:00,0,48939,0,0.00,0,0,0,0,44726,50000,1691,50000,0,0,0,0,0.00,0.00,0.00,0.00
2014-09-10 06:50:00,0,50000,0,0.00,0,0,0,0,50000,50000,0,50000,0,0,0,0,0.00,0.00,0.00,0.00
2014-09-10 07:00:00,0,50000,0,0.00,0,0,0,0,50000,50000,0,50000,0,0,0,0,0.00,0.00,0.00,0.00
2014-09-10 07:10:00,0,49827,0,0.00,0,0,0,0,48274,50000,518,50000,0,0,0,0,0.00,0.00,0.00,0.00
2014-09-10 07:20:00,0,49939,0,0.00,0,0,0,0,49389,50000,183,50000,0,0,0,0,0.00,0.00,0.00,0.00
2014-09-10 07:30:00,0,50000,0,0.00,0,0,0,0,50000,50000,0,50000,0,0,0,0,0.00,0.00,0.00,0.00
2014-09-10 07:40:00,0,50000,0,0.00,0,0,0,0,50000,50000,0,50000,0,0,0,0,0.00,0.00,0.00,0.00
2014-09-10 07:50:00,0,50000,0,0.00,0,0,0,0,50000,50000,0,50000,0,0,0,0,0.00,0.00,0.00,0.00
2014-09-10 08:00:00,0,50000,0,0.00,0,0,0,0,50000,50000,0,50000,0,0,0,0,0.00,0.00,0.00,0.00
2014-09-10 08:10:00,0,49695,0,0.00,0,0,0,0,47136,50000,855,50000,0,0,0,0,0.00,0.00,0.00,0.00
2014-09-10 08:20:00,0,50000,0,0.00,0,0,0,0,50000,50000,0,50000,0,0,0,0,0.00,0.00,0.00,0.00
2014-09-10 08:30:00,0,47779,0,0.00,0,0,0,0,43101,50000,2738,49739,0,0,0,0,0.00,0.00,0.00,0.00
2014-09-10 08:40:00,0,46567,48,0.26,0,0,0,0,42190,50000,2615,46494,0,61,16,51,0.00,0.70,0.21,0.17
2014-09-10 08:50:00,0,48132,56,0.49,0,0,0,0,39065,50000,3803,50000,51,61,5,56,0.00,1.25,0.43,0.43
2014-09-10 09:00:00,0,45124,51,0.42,0,0,0,0,38595,50000,4356,45454,51,52,0,51,0.10,0.80,0.25,0.38
2014-09-10 09:10:00,0,44731,41,0.17,0,0,0,0,35109,50000,5023,46388,0,51,20,51,0.00,0.35,0.14,0.15
2014-09-10 09:20:00,0,46616,55,1.01,0,0,0,0,33255,50000,4872,48859,0,61,18,61,0.00,2.60,0.65,1.02
2014-09-10 09:30:00,0,45570,61,0.81,0,0,0,0,37386,50000,4860,48010,61,61,0,61,0.25,1.80,0.50,0.60
2014-09-10 09:40:00,0,48045,52,0.59,0,0,0,0,42547,50000,2566,49719,51,52,0,52,0.10,1.30,0.44,0.43
2014-09-10 09:50:00,0,46862,54,0.17,0,0,0,0,39473,50000,3712,48514,51,61,5,51,0.05,0.25,0.06,0.17
2014-09-10 10:00:00,0,40333,52,1.27,0,0,0,0,28481,50000,7972,43880,51,52,0,52,0.60,2.65,0.64,0.98
2014-09-10 10:10:00,0,49355,57,0.66,0,0,0,0,45085,50000,1456,50000,51,61,5,61,0.05,1.65,0.48,0.65
2014-09-10 10:20:00,0,49684,43,0.30,0,0,0,0,47607,50000,729,50000,0,52,15,51,0.00,0.95,0.34,0.15
2014-09-10 10:30:00,0,44761,0,0.00,0,0,0,0,29422,50000,6953,48714,0,0,0,0,0.00,0.00,0.00,0.00
2014-09-10 10:40:00,0,22729,43,1.52,0,0,0,0,14227,31031,6321,24633,0,61,28,61,0.00,3.10,1.09,1.80
2014-09-10 10:50:00,0,34169,60,1.03,0,0,0,0,22293,46827,7389,32656,52,61,3,61,0.50,1.60,0.38,0.97
2014-09-10 11:00:00,0,46564,51,0.25,0,0,0,0,29684,50000,6824,50000,51,52,0,51,0.00,1.30,0.38,0.08
2014-09-10 11:10:00,0,44884,0,0.00,0,0,0,0,26782,50000,7712,48894,0,0,0,0,0.00,0.00,0.00,0.00
2014-09-10 11:20:00,0,49129,0,0.00,0,0,0,0,42535,50000,2229,50000,0,0,0,0,0.00,0.00,0.00,0.00
2014-09-10 11:30:00,0,50000,0,0.00,0,0,0,0,50000,50000,0,50000,0,0,0,0,0.00,0.00,0.00,0.00
2014-09-10 11:40:00,0,50000,0,0.00,0,0,0,0,50000,50000,0,50000,0,0,0,0,0.00,0.00,0.00,0.00
2014-09-10 11:50:00,0,50000,0,0.00,0,0,0,0,50000,50000,0,50000,0,0,0,0,0.00,0.00,0.00,0.00
2014-09-10 12:00:00,0,36469,37,0.14,0,0,0,0,11447,50000,13864,41903,0,61,25,46,0.00,0.50,0.17,0.05
2014-09-10 12:10:00,0,41523,51,0.89,0,0,0,0,18170,50000,9814,44452,51,52,0,51,0.05,3.30,1.05,0.45
2014-09-10 12:20:00,2,43439,37,0.29,0,2,1,2,17243,50000,11226,50000,0,61,30,61,0.00,1.90,0.57,0.00
2014-09-10 12:30:00,2,50000,0,0.00,2,2,0,2,50000,50000,0,50000,0,0,0,0,0.00,0.00,0.00,0.00
2014-09-10 12:40:00,2,45280,0,0.00,0,2,1,2,23031,50000,9496,50000,0,0,0,0,0.00,0.00,0.00,0.00
2014-09-10 12:50:00,2,48552,22,0.18,2,2,0,2,42359,50000,2709,50000,0,61,28,0,0.00,0.75,0.27,0.00
2014-09-10 13:00:00,2,39881,32,0.39,2,2,0,2,17682,50000,10186,42256,0,61,26,52,0.00,1.20,0.41,0.35
2014-09-10 13:10:00,2,37500,46,0.45,2,2,0,2,19525,50000,11957,40300,0,61,16,52,0.00,1.85,0.65,0.10
2014-09-10 13:20:00,2,42892,6,0.17,2,2,0,2,10650,50000,14317,50000,0,61,18,0,0.00,1.65,0.50,0.00
2014-09-10 13:30:00,2,45573,11,0.09,2,2,0,2,20131,50000,9155,50000,0,61,23,0,0.00,0.85,0.26,0.00
2014-09-10 13:40:00,2,49105,18,0.01,2,2,0,2,42653,50000,2203,50000,0,61,28,0,0.00,0.15,0.05,0.00
2014-09-10 13:50:00,2,50000,0,0.00,2,2,0,2,50000,50000,0,50000,0,0,0,0,0.00,0.00,0.00,0.00
2014-09-10 14:00:00,2,50000,0,0.00,2,2,0,2,50000,50000,0,50000,0,0,0,0,0.00,0.00,0.00,0.00
2014-09-10 14:10:00,2,50000,0,0.00,2,2,0,2,50000,50000,0,50000,0,0,0,0,0.00,0.00,0.00,0.00
2014-09-10 14:20:00,2,50000,0,0.00,2,2,0,2,50000,50000,0,50000,0,0,0,0,0.00,0.00,0.00,0.00
2014-09-10 14:30:00,2,50000,0,0.00,2,2,0,2,50000,50000,0,50000,0,0,0,0,0.00,0.00,0.00,0.00
2014-09-10 14:40:00,2,50000,0,0.00,2,2,0,2,50000,50000,0,50000,0,0,0,0,0.00,0.00,0.00,0.00
2014-09-10 14:50:00,2,50000,0,0.00,2,2,0,2,50000,50000,0,50000,0,0,0,0,0.00,0.00,0.00,0.00
2014-09-10 15:00:00,2,50000,0,0.00,2,2,0,2,50000,50000,0,50000,0,0,0,0,0.00,0.00,0.00,0.00
2014-09-10 15:10:00,2,50000,0,0.00,2,2,0,2,50000,50000,0,50000,0,0,0,0,0.00,0.00,0.00,0.00
2014-09-10 15:20:00,2,50000,0,0.00,2,2,0,2,50000,50000,0,50000,0,0,0,0,0.00,0.00,0.00,0.00
2014-09-10 15:30:00,2,50000,0,0.00,2,2,0,2,50000,50000,0,50000,0,0,0,0,0.00,0.00,0.00,0.00
2014-09-10 15:40:00,2,50000,0,0.00,2,2,0,2,50000,50000,0,50000,0,0,0,0,0.00,0.00,0.00,0.00
2014-09-10 15:50:00,2,50000,0,0.00,2,2,0,2,50000,50000,0,50000,0,0,0,0,0.00,0.00,0.00,0.00
2014-09-10 16:00:00,2,50000,0,0.00,2,2,0,2,50000,50000,0,50000,0,0,0,0,0.00,0.00,0.00,0.00
2014-09-10 16:10:00,2,50000,0,0.00,2,2,0,2,50000,50000,0,50000,0,0,0,0,0.00,0.00,0.00,0.00
2014-09-10 16:20:00,2,50000,0,0.00,0,2,1,2,50000,50000,0,50000,0,0,0,0,0.00,0.00,0.00,0.00
2014-09-10 16:30:00,0,50000,0,0.00,0,0,0,0,50000,50000,0,50000,0,0,0,0,0.00,0.00,0.00,0.00
2014-09-10 16:40:00,1,50000,0,0.00,0,2,1,2,50000,50000,0,50000,0,0,0,0,0.00,0.00,0.00,0.00
2014-09-10 16:50:00,2,50000,0,0.00,2,2,0,2,50000,50000,0,50000,0,0,0,0,0.00,0.00,0.00,0.00
2014-09-10 17:00:00,2,50000,0,0.00,2,2,0,2,50000,50000,0,50000,0,0,0,0,0.00,0.00,0.00,0.00
2014-09-10 17:10:00,2,50000,0,0.00,2,2,0,2,50000,50000,0,50000,0,0,0,0,0.00,0.00,0.00,0.00
2014-09-10 17:20:00,2,50000,0,0.00,2,2,0,2,50000,50000,0,50000,0,0,0,0,0.00,0.00,0.00,0.00
2014-09-10 17:30:00,2,50000,0,0.00,2,2,0,2,50000,50000,0,50000,0,0,0,0,0.00,0.00,0.00,0.00
2014-09-10 17:40:00,2,50000,0,0.00,2,2,0,2,50000,50000,0,50000,0,0,0,0,0.00,0.00,0.00,0.00
2014-09-10 17:50:00,2,50000,0,0.00,2,2,0,2,50000,50000,0,50000,0,0,0,0,0.00,0.00,0.00,0.00
2014-09-10 18:00:00,2,50000,0,0.00,2,2,0,2,50000,50000,0,50000,0,0,0,0,0.00,0.00,0.00,0.00
2014-09-10 18:10:00,2,50000,0,0.00,2,2,0,2,50000,50000,0,50000,0,0,0,0,0.00,0.00,0.00,0.00
2014-09-10 18:20:00,2,50000,0,0.00,2,2,0,2,50000,50000,0,50000,0,0,0,0,0.00,0.00,0.00,0.00
2014-09-10 18:30:00,2,50000,0,0.00,2,2,0,2,50000,50000,0,50000,0,0,0,0,0.00,0.00,0.00,0.00
2014-09-10 18:40:00,2,50000,0,0.00,2,2,0,2,50000,50000,0,50000,0,0,0,0,0.00,0.00,0.00,0.00
2014-09-10 18:50:00,2,50000,0,0.00,2,2,0,2,50000,50000,0,50000,0,0,0,0,0.00,0.00,0.00,0.00
2014-09-10 19:00:00,2,50000,0,0.00,2,2,0,2,50000,50000,0,50000,0,0,0,0,0.00,0.00,0.00,0.00
2014-09-10 19:10:00,2,50000,0,0.00,2,2,0,2,50000,50000,0,50000,0,0,0,0,0.00,0.00,0.00,0.00
2014-09-10 19:20:00,2,50000,0,0.00,2,2,0,2,50000,50000,0,50000,0,0,0,0,0.00,0.00,0.00,0.00
2014-09-10 19:30:00,2,50000,0,0.00,2,2,0,2,50000,50000,0,50000,0,0,0,0,0.00,0.00,0.00,0.00
2014-09-10 19:40:00,2,50000,0,0.00,2,2,0,2,50000,50000,0,50000,0,0,0,0,0.00,0.00,0.00,0.00
2014-09-10 19:50:00,2,50000,0,0.00,2,2,0,2,50000,50000,0,50000,0,0,0,0,0.00,0.00,0.00,0.00
2014-09-10 20:00:00,2,50000,0,0.00,2,2,0,2,50000,50000,0,50000,0,0,0,0,0.00,0.00,0.00,0.00
2014-09-10 20:10:00,2,50000,0,0.00,2,2,0,2,50000,50000,0,50000,0,0,0,0,0.00,0.00,0.00,0.00
2014-09-10 20:20:00,2,50000,0,0.00,2,2,0,2,50000,50000,0,50000,0,0,0,0,0.00,0.00,0.00,0.00
2014-09-10 20:30:00,2,50000,0,0.00,2,2,0,2,50000,50000,0,50000,0,0,0,0,0.00,0.00,0.00,0.00
2014-09-10 20:40:00,2,50000,0,0.00,2,2,0,2,50000,50000,0,50000,0,0,0,0,0.00,0.00,0.00,0.00
2014-09-10 20:50:00,2,50000,0,0.00,2,2,0,2,50000,50000,0,50000,0,0,0,0,0.00,0.00,0.00,0.00
2014-09-10 21:00:00,2,50000,0,0.00,2,2,0,2,50000,50000,0,50000,0,0,0,0,0.00,0.00,0.00,0.00
2014-09-10 21:10:00,2,50000,0,0.00,2,2,0,2,50000,50000,0,50000,0,0,0,0,0.00,0.00,0.00,0.00
2014-09-10 21:20:00,2,50000,0,0.00,2,2,0,2,50000,50000,0,50000,0,0,0,0,0.00,0.00,0.00,0.00
2014-09-10 21:30:00,2,50000,0,0.00,2,2,0,2,50000,50000,0,50000,0,0,0,0,0.00,0.00,0.00,0.00
2014-09-10 21:40:00,2,50000,0,0.00,2,2,0,2,50000,50000,0,50000,0,0,0,0,0.00,0.00,0.00,0.00
2014-09-10 21:50:00,2,49912,0,0.00,2,2,0,2,49122,50000,263,50000,0,0,0,0,0.00,0.00,0.00,0.00
2014-09-10 22:00:00,2,49858,0,0.00,2,2,0,2,48883,50000,337,50000,0,0,0,0,0.00,0.00,0.00,0.00
2014-09-10 22:10:00,2,49483,0,0.00,2,2,0,2,45483,50000,1348,50000,0,0,0,0,0.00,0.00,0.00,0.00
2014-09-10 22:20:00,2,50000,0,0.00,2,2,0,2,50000,50000,0,50000,0,0,0,0,0.00,0.00,0.00,0.00
2014-09-10 22:30:00,2,49727,0,0.00,2,2,0,2,47867,50000,645,50000,0,0,0,0,0.00,0.00,0.00,0.00
2014-09-10 22:40:00,2,50000,0,0.00,2,2,0,2,50000,50000,0,50000,0,0,0,0,0.00,0.00,0.00,0.00
2014-09-10 22:50:00,2,50000,0,0.00,2,2,0,2,50000,50000,0,50000,0,0,0,0,0.00,0.00,0.00,0.00
2014-09-10 23:00:00,2,50000,0,0.00,2,2,0,2,50000,50000,0,50000,0,0,0,0,0.00,0.00,0.00,0.00
2014-09-10 23:10:00,2,49573,0,0.00,2,2,0,2,46311,50000,1101,50000,0,0,0,0,0.00,0.00,0.00,0.00
2014-09-10 23:20:00,2,49960,0,0.00,2,2,0,2,49597,50000,121,50000,0,0,0,0,0.00,0.00,0.00,0.00
2014-09-10 23:30:00,2,49892,0,0.00,2,2,0,2,48923,50000,323,50000,0,0,0,0,0.00,0.00,0.00,0.00
2014-09-10 23:40:00,2,47752,0,0.00,2,2,0,2,40755,50000,3529,50000,0,0,0,0,0.00,0.00,0.00,0.00
2014-09-10 23:50:00,2,46353,0,0.00,2,2,0,2,35353,50000,4139,47047,0,0,0,0,0.00,0.00,0.00,0.00
